Location: Go?cza
(50.3372°N, 19.9313°E)
Time: 00:20:31
(UTC+00:00)

Cosmos 2098 Rocket - Pass Details

Date: 23 May 2024
Orbit: 360 x 1019 km, 82.9° (Epoch: 18 June)

Event Time Altitude Azimuth Distance (km) Brightness Sun altitude
Rises 23:20:23 0° 5° (N) 3,026 8.3 -18.4°
Reaches altitude 10° 23:23:33 10° 29° (NNE) 2,251 7.0 -18.3°
Drops below altitude 10° 23:29:34 10° 98° (E) 2,486 6.2 -18.1°
Enters shadow 23:36:21 -7° 130° (SE) 4,529 7.2 -17.8°
Exits shadow 00:02:58 -59° 162° (SSE) 11,924 9.5 -16.5°
Maximum altitude 01:06:21 81° 80° (E) 837 3.8 -11.7°
